Location: Battery Park City
(40.7115°N, 74.0163°W)
Time: 03:27:30
(UTC+00:00)

USA 116 - Pass Details

Date: 08 December 2019
Orbit: 405 x 834 km, 97.9° (Epoch: 18 November)

Event Time Altitude Azimuth Distance (km) Brightness Sun altitude
Exits shadow 23:27:53 15° 11° (N) 2,045 6.4 -21.9°
Maximum altitude 23:32:21 85° 284° (WNW) 796 4.4 -22.7°
Drops below altitude 10° 23:37:27 10° 196° (SSW) 2,268 7.1 -23.7°
Sets 23:39:39 0° 196° (SSW) 3,143 7.9 -24.1°
